CW6344 Weather Reports


time (UTC)temp
C
wind
direction
speed
KPH
gust
KPH
rain 1hr
cm
rain 24hr
cm
rain mn
cm
humidity
%
barometer
mb
20260905050411 23 221 0.0 0.0 0.00 3.33 0.00 88 1012.0
20260905044441 24 229 0.0 1.6 0.00 3.71 0.00 88 1012.2
20260905043411 23 225 0.0 3.2 0.00 3.71 0.00 89 1012.1
20260905042411 24 278 0.0 0.0 0.00 3.71 0.00 89 1012.2
20260905041411 24 278 0.0 3.2 0.00 3.89 0.00 89 1012.3
20260905040511 24 198 0.0 0.0 0.00 4.06 4.06 89 1012.4
20260905034411 24 198 0.0 0.0 0.00 4.11 4.06 88 1012.4
20260905033411 24 198 0.0 0.0 0.00 4.11 4.06 87 1012.4
20260905032411 23 198 0.0 0.0 0.00 4.11 4.06 86 1012.3
20260905030411 24 198 0.0 0.0 0.00 4.11 4.06 87 1012.3
20260905024411 24 198 0.0 0.0 0.00 4.11 4.06 84 1012.6
20260905023411 24 198 0.0 0.0 0.00 4.11 4.06 85 1012.7
20260905022411 24 198 0.0 0.0 0.00 4.11 4.06 85 1012.8
20260905021411 24 198 0.0 0.0 0.00 4.11 4.06 85 1012.8
20260905020411 24 198 0.0 0.0 0.00 4.11 4.06 85 1012.5
20260905015411 24 198 0.0 0.0 0.00 4.11 4.06 86 1012.5
20260905014411 24 198 0.0 0.0 0.00 4.11 4.06 85 1012.3
20260905013411 24 198 0.0 0.0 0.00 4.11 4.06 85 1012.4
20260905012411 24 198 0.0 0.0 0.00 4.11 4.06 85 1012.5
20260905011411 25 198 0.0 0.0 0.00 4.11 4.06 84 1012.3
20260905010411 25 198 0.0 0.0 0.00 4.11 4.06 84 1012.1
20260905005411 25 198 0.0 0.0 0.00 4.11 4.06 83 1012.3
20260905004441 25 198 0.0 0.0 0.00 4.11 4.06 83 1012.2
20260905003411 25 199 0.0 1.6 0.00 4.11 4.06 82 1012.5
20260905002411 24 199 0.0 4.8 0.00 4.11 4.06 84 1012.3
20260905001411 24 279 0.0 0.0 0.00 4.11 4.06 85 1012.1
20260905000411 24 279 0.0 0.0 0.00 4.11 4.06 86 1011.8
20260904235411 24 279 0.0 0.0 0.00 4.11 4.06 86 1011.7
20260904234411 24 279 0.0 0.0 0.00 4.11 4.06 87 1011.7
20260904233411 25 279 0.0 0.0 0.00 4.11 4.06 86 1011.4
20260904232411 25 279 0.0 0.0 0.03 4.11 4.06 83 1011.4
20260904231411 25 279 0.0 0.0 0.03 4.11 4.06 80 1011.3
20260904230411 25 279 0.0 0.0 0.03 4.11 4.06 80 1011.5
20260904224411 26 274 0.0 0.0 0.03 4.11 4.06 78 1011.6
20260904223411 27 254 1.6 4.8 0.03 4.11 4.06 78 1012.1
20260904222411 27 260 0.0 4.8 0.00 4.09 4.04 81 1012.5
20260904221411 27 248 0.0 4.8 0.00 4.09 4.04 80 1012.6
20260904220411 27 202 0.0 0.0 0.00 4.09 4.04 82 1012.8
20260904215411 27 202 0.0 1.6 0.00 4.09 4.04 84 1012.9
20260904214411 28 202 0.0 0.0 0.00 4.09 4.04 82 1012.7
20260904213411 28 202 0.0 0.0 0.00 4.09 4.04 81 1012.7
20260904212441 28 202 0.0 0.0 0.00 4.09 4.04 83 1012.4
20260904211411 28 202 0.0 0.0 0.00 4.09 4.04 81 1012.2
20260904210411 28 202 0.0 0.0 0.00 4.09 4.04 79 1012.5
20260904204441 28 198 0.0 0.0 0.00 4.09 4.04 79 1012.2
20260904203411 29 198 0.0 0.0 0.00 4.09 4.04 80 1012.4
20260904202541 29 198 0.0 0.0 0.00 4.09 4.04 75 1012.2
20260904201411 30 198 0.0 0.0 0.00 4.09 4.04 73 1012.2
20260904200411 31 196 0.0 0.0 0.00 4.09 4.04 70 1012.3
20260904195411 31 269 0.0 3.2 0.00 4.09 4.04 69 1012.5
20260904194411 32 269 3.2 3.2 0.00 4.09 4.04 65 1012.4
20260904193411 32 269 0.0 3.2 0.00 4.09 4.04 67 1012.5
20260904192411 32 281 0.0 4.8 0.00 4.09 4.04 67 1012.6
20260904191411 32 346 0.0 3.2 0.00 4.09 4.04 63 1012.7
20260904190411 31 246 1.6 3.2 0.00 4.09 4.04 65 1012.8
20260904185411 31 302 1.6 4.8 0.00 4.09 4.04 63 1013.0
20260904184411 31 293 0.0 0.0 0.00 4.09 4.04 72 1013.2
20260904182411 31 293 0.0 4.8 0.00 4.09 4.04 71 1013.4
20260904181411 31 299 0.0 1.6 0.00 4.09 4.04 76 1013.5
20260904180411 30 297 0.0 1.6 0.00 4.09 4.04 73 1013.5
20260904175411 30 287 0.0 0.0 0.00 4.09 4.04 75 1013.6
20260904174411 30 350 0.0 4.8 0.00 4.09 4.04 74 1013.7
20260904172441 30 310 4.8 4.8 0.00 4.09 4.04 76 1013.8
20260904171411 30 331 0.0 1.6 0.00 4.09 4.04 73 1013.7
20260904170441 30 282 0.0 1.6 0.00 4.09 4.04 76 1013.7
20260904165411 30 279 0.0 0.0 0.00 4.09 4.04 78 1013.8
20260904164441 30 274 0.0 1.6 0.00 4.09 4.04 73 1013.8
20260904163411 30 264 3.2 4.8 0.00 4.09 4.04 73 1013.9
20260904162411 30 12 1.6 4.8 0.00 4.09 4.04 73 1014.0
20260904161412 29 265 0.0 3.2 0.00 4.09 4.04 75 1014.0
20260904160511 29 265 0.0 4.8 0.00 4.09 4.04 76 1014.2
20260904155411 29 252 3.2 3.2 0.00 4.09 4.04 75 1014.3
20260904154411 28 244 0.0 1.6 0.00 4.09 4.04 77 1014.3
20260904153411 28 137 0.0 1.6 0.00 4.09 4.04 78 1014.4
20260904152411 28 245 0.0 3.2 0.00 4.09 4.04 79 1014.4
20260904151416 28 222 0.0 0.0 0.00 4.09 4.04 78 1014.3
20260904150411 28 287 0.0 3.2 0.00 4.09 4.04 80 1014.3
20260904145411 27 277 0.0 1.6 0.00 4.09 4.04 78 1014.3
20260904144411 27 346 0.0 0.0 0.00 4.09 4.04 81 1014.4
20260904143411 27 248 1.6 4.8 0.00 4.09 4.04 81 1014.5
20260904142411 27 258 0.0 4.8 0.00 4.09 4.04 81 1014.6
20260904141412 27 211 0.0 0.0 0.00 4.09 4.04 84 1014.5
20260904140411 26 211 0.0 3.2 0.00 4.09 4.04 86 1014.4
20260904134411 25 213 0.0 1.6 0.00 4.09 4.04 91 1014.4
20260904132412 25 213 0.0 0.0 0.00 4.09 4.04 93 1014.4
20260904131411 24 213 0.0 0.0 0.00 4.09 4.04 93 1014.4
20260904130412 24 213 0.0 0.0 0.00 4.09 4.04 93 1014.4
20260904125412 24 210 0.0 0.0 0.00 4.09 4.04 94 1014.4
20260904124412 24 53 0.0 0.0 0.00 4.09 4.04 94 1014.5
20260904122412 24 49 0.0 0.0 0.00 4.09 4.04 94 1014.7
20260904121412 24 48 0.0 0.0 0.00 4.09 4.04 94 1014.9
20260904120412 23 48 0.0 0.0 0.00 4.09 4.04 94 1014.9
20260904115412 23 48 0.0 0.0 0.00 4.09 4.04 94 1014.8
20260904114412 23 48 0.0 0.0 0.00 4.09 4.04 94 1014.8
20260904113411 23 48 0.0 0.0 0.00 4.09 4.04 94 1014.8
20260904060437 22 233 0.0 1.6 3.28 4.04 4.01 92 1014.4
20260904055437 22 233 0.0 1.6 3.56 4.01 3.96 92 1015.0
20260904054437 22 233 0.0 0.0 3.51 3.91 3.86 92 1016.0
20260904053437 23 233 0.0 3.2 3.10 3.48 3.45 92 1017.1
20260904052507 23 132 0.0 1.6 2.49 2.90 2.84 92 1016.5
20260904051437 23 313 3.2 11.3 1.83 2.01 2.01 91 1015.9